[[{"header":{"parameterUnit":"m.s-1","parameterCategory":1,"la1":30.2991,"la2":30.254,"lo1":-89.0895,"lo2":-89.0444,"dy":0.0017,"dx":0.0017,"nx":28,"ny":28,"refTime":"2023-11-21T03:00:00:Z","depth":0,"parameterNumber":2,"parameterNumberName":"U-component_of_WINDS"},"data":[0,0,0,0,0,0,0,0,0,0,0,0,0,0,0,0,0,0,0,0,0,0,0,0,0,0,0,0,0,0,0,0,0,0,0,0,0,0,0,0,0,0,0,0,0,0,0,0,0,0,0,0,0,0,0,0,0,0,3.3184,3.3184,0,3.3182,3.3182,3.3182,3.3128,3.3127,3.3125,3.3124,3.3122,3.3123,3.3124,0,0,0,0,0,0,0,0,0,0,0,0,0,3.3143,3.3144,3.3184,3.3184,3.3184,3.3182,3.3182,3.3182,3.3128,3.3127,3.3125,3.3123,3.3121,3.3123,3.3124,0,0,0,0,0,0,0,0,0,0,0,0,0,3.3153,3.3144,3.3184,3.3157,3.3154,3.3182,3.3182,3.3182,3.3129,3.3126,3.3124,3.3122,3.3121,3.3123,3.3124,3.3177,0,0,3.313,3.3131,0,0,0,0,0,0,0,0,3.3152,3.3154,3.3161,3.3159,3.3156,3.3153,3.3166,3.318,3.3129,3.3138,3.3124,3.3121,3.3134,3.3134,3.3139,3.3177,3.3177,3.313,3.3131,3.3132,3.3133,0,0,0,0,0,0,0,3.3151,3.3154,3.3183,3.3161,3.3158,3.3145,3.3144,3.3169,3.3148,3.3137,3.3133,3.3134,3.3132,3.3137,3.3138,3.3177,3.313,3.3132,3.3133,3.3134,3.326,3.3263,0,0,0,0,0,0,3.3154,3.3154,3.3183,3.3183,3.3149,3.3148,3.3147,3.3156,3.3147,3.3144,3.3136,3.3132,3.3135,3.3136,3.3138,3.32,3.3132,3.3134,3.3135,3.3258,3.3261,3.3263,0,0,0,0,0,0,3.3154,3.3157,3.3183,3.3167,3.3169,3.3151,3.3162,3.3157,3.3162,3.3146,3.3142,3.3145,3.3133,3.3135,3.3168,3.3199,3.3135,3.3136,3.3256,3.3259,3.3262,3.3324,0,0,0,0,0,0,3.3153,3.3158,3.3177,3.3168,3.3171,3.3213,3.3163,3.3159,3.3165,3.316,3.3153,3.315,3.3132,3.3166,3.317,3.32,3.3138,3.3253,3.3257,3.3261,3.3319,3.3329,3.3338,0,0,0,0,0,3.3151,3.3194,3.3178,3.3182,3.3194,3.3215,3.3216,3.3194,3.3168,3.3188,3.3178,3.315,3.3195,3.317,3.3174,3.3205,3.3251,3.3256,3.3261,3.3315,3.3327,3.3337,0,0,0,0,0,0,3.3206,3.3192,3.3175,3.3216,3.3217,3.3206,3.323,3.3208,3.3217,3.3211,3.3183,3.3182,3.322,3.3216,3.3188,3.3257,3.3218,3.3224,3.3258,3.3269,3.3278,3.3278,3.3139,0,0,0,0,0,3.3224,3.3241,3.3228,3.3266,3.3267,3.3249,3.3257,3.324,3.324,3.3241,3.3233,3.3235,3.3249,3.3259,3.3271,3.3319,3.3317,3.3343,3.3352,3.3359,3.3365,3.3391,3.3402,3.328,3.328,3.328,0,0,3.3258,3.3253,3.3266,3.3277,3.3276,3.3295,3.325,3.3272,3.3286,3.3244,3.3275,3.327,3.3269,3.331,3.3328,3.3308,3.3399,3.3366,3.3372,3.3373,3.3397,3.3409,3.3419,3.3284,3.3283,3.3282,0,0,3.3332,3.333,3.3361,3.3362,3.3361,3.3349,3.3357,3.335,3.3345,3.3376,3.3345,3.3362,3.3387,3.3389,3.3393,3.347,3.3445,3.3475,3.3523,3.3548,3.3558,3.3566,3.3594,3.3604,3.348,3.3481,3.3481,0,3.3375,3.3403,3.338,3.3405,3.3411,3.3375,3.3407,3.3408,3.3412,3.3417,3.3396,3.3428,3.3425,3.3466,3.3485,3.3489,3.3498,3.3475,3.3558,3.3567,3.3574,3.36,3.3611,3.3484,3.3484,3.3483,3.3483,0,3.3457,3.3477,3.3503,3.3508,3.3517,3.3546,3.3527,3.3539,3.3523,3.3513,3.3545,3.3541,3.3553,3.3561,3.3545,3.3601,3.3589,3.3563,3.3524,3.359,3.3614,3.3624,3.3489,3.3488,3.3487,3.3486,0,0,3.3564,3.3557,3.3567,3.357,3.3568,3.3583,3.3611,3.3622,3.3633,3.3638,3.366,3.3684,3.3661,3.3666,3.3649,3.3671,3.3734,3.3643,3.3643,3.366,3.3796,3.3815,3.3827,3.3718,3.372,3.3721,3.3796,0,3.3635,3.3681,3.3662,3.371,3.3729,3.3696,3.372,3.3722,3.3715,3.373,3.3721,3.3738,3.3706,3.3709,3.373,3.3722,3.376,3.3716,3.3739,3.374,3.3739,3.3839,3.3859,3.393,3.3805,3.3807,3.3808,0,3.3724,3.3733,3.3784,3.378,3.3787,3.3809,3.3819,3.3834,3.3836,3.3829,3.3835,3.3814,3.3842,3.3803,3.3841,3.3811,3.382,3.3817,3.382,3.382,3.3777,3.3843,3.3952,3.3963,3.3823,3.3821,3.382,0,3.3797,3.3822,3.3855,3.3859,3.3855,3.3872,3.3871,3.3871,3.388,3.3889,3.3894,3.3906,3.3913,3.3923,3.3906,3.388,3.3947,3.3907,3.3942,3.3942,3.3956,3.3956,3.4068,3.3963,3.3963,3.3962,3.3962,0,3.3879,3.3911,3.3888,3.3909,3.3945,3.3923,3.3959,3.3954,3.3955,3.3975,3.3947,3.3966,3.3943,3.396,3.3947,3.3981,3.3984,3.3979,3.3975,3.3981,3.3982,3.3986,3.398,3.3965,3.3965,3.3964,3.3964,0,3.3965,3.3952,3.3986,3.3981,3.398,3.4007,3.4002,3.4021,3.4013,3.4038,3.4043,3.4029,3.4048,3.4032,3.4051,3.4042,3.4087,3.4076,3.4086,3.4083,3.4119,3.4116,3.4238,3.4253,3.4138,3.4139,3.414,0,3.4018,3.4042,3.404,3.4051,3.4053,3.4071,3.4081,3.4061,3.4072,3.4077,3.4096,3.4113,3.4125,3.4156,3.4148,3.4162,3.4152,3.4193,3.4153,3.4159,3.4152,3.4151,3.4154,3.4201,3.4203,3.4204,3.4205,0,3.4113,3.4106,3.412,3.4133,3.4145,3.4155,3.4161,3.4172,3.4152,3.4166,3.4186,3.4195,3.4215,3.4232,3.4243,3.4243,3.4221,3.4218,3.4226,3.4233,3.4238,3.4236,3.4108,3.4215,3.4214,3.4213,3.4212,3.4212,3.4184,3.4205,3.4207,3.4225,3.4228,3.4236,3.4254,3.4248,3.4264,3.4278,3.4266,3.4289,3.4292,3.4306,3.4308,3.4326,3.4309,3.4322,3.4325,3.4328,3.4334,3.4236,3.4329,3.4328,3.4328,3.4328,3.4327,0,3.4278,3.4278,3.4295,3.4306,3.432,3.4299,3.4307,3.432,3.4341,3.4346,3.4359,3.4382,3.4399,3.4393,3.4408,3.4424,3.4414,3.4428,3.4427,3.4427,3.4348,3.4339,3.4436,3.4436,3.4436,3.4436,3.4436,3.4436,3.4329,3.4362,3.4356,3.4392,3.4391,3.4415,3.4421,3.4428,3.4431,3.4458,3.4473,3.4469,3.447,3.4485,3.45,3.4498,3.4504,3.4522,3.4517,3.4443,3.4432,3.4422,3.4413,3.4524,3.4524,3.4594,3.4594,3.4595]},{"header":{"parameterUnit":"m.s-1","parameterCategory":1,"la1":30.2991,"la2":30.254,"lo1":-89.0895,"lo2":-89.0444,"dy":0.0017,"dx":0.0017,"nx":28,"ny":28,"refTime":"2023-11-21T03:00:00:Z","depth":0,"parameterNumber":3,"parameterNumberName":"V-component_of_WINDS"},"data":[0,0,0,0,0,0,0,0,0,0,0,0,0,0,0,0,0,0,0,0,0,0,0,0,0,0,0,0,0,0,0,0,0,0,0,0,0,0,0,0,0,0,0,0,0,0,0,0,0,0,0,0,0,0,0,0,0,0,-6.9747,-6.9749,0,-6.9887,-6.9888,-6.989,-6.9847,-6.9844,-6.9842,-6.9839,-6.9977,-6.9983,-6.999,0,0,0,0,0,0,0,0,0,0,0,0,0,-6.9441,-6.9447,-6.9747,-6.9749,-6.9751,-6.9886,-6.9888,-6.989,-6.9848,-6.9844,-6.9841,-6.9838,-6.9975,-6.9983,-6.999,0,0,0,0,0,0,0,0,0,0,0,0,0,-6.9577,-6.9449,-6.9747,-6.9746,-6.9747,-6.9886,-6.9888,-6.9891,-6.9849,-6.9844,-6.984,-6.9836,-6.9973,-6.9982,-6.9991,-7.0138,0,0,-7.0021,-7.0025,0,0,0,0,0,0,0,0,-6.9569,-6.9588,-6.9744,-6.9746,-6.9748,-6.9845,-6.9831,-6.9974,-6.985,-6.981,-6.9839,-6.9834,-6.9937,-6.9949,-6.9984,-7.0145,-7.015,-7.0022,-7.0027,-7.0032,-7.0034,0,0,0,0,0,0,0,-6.956,-6.9582,-6.9802,-6.9747,-6.9749,-6.9738,-6.9752,-6.9858,-6.9896,-6.9813,-6.981,-6.9828,-6.9937,-6.9975,-6.9987,-7.0152,-7.0021,-7.003,-7.0036,-7.0039,-7.0441,-7.0445,0,0,0,0,0,0,-6.955,-6.9574,-6.9798,-6.9806,-6.9646,-6.9747,-6.9763,-6.9818,-6.9895,-6.9902,-6.9831,-6.9825,-6.9961,-6.9976,-6.9992,-7.017,-7.0031,-7.004,-7.0046,-7.0436,-7.0442,-7.0447,0,0,0,0,0,0,-6.9543,-6.957,-6.9792,-6.969,-6.9717,-6.9757,-6.9819,-6.9823,-6.9862,-6.9909,-6.9915,-6.9864,-6.9958,-6.9979,-7.0103,-7.0174,-7.0045,-7.0053,-7.043,-7.0438,-7.0445,-7.0525,0,0,0,0,0,0,-6.9535,-6.9568,-6.9625,-6.9691,-6.9723,-6.9902,-6.9824,-6.9829,-6.9879,-6.9873,-6.9941,-6.9948,-6.9956,-7.0089,-7.0112,-7.0185,-7.0061,-7.0424,-7.0434,-7.0442,-7.0517,-7.0535,-7.055,0,0,0,0,0,-6.9524,-6.9641,-6.9628,-6.9655,-6.9795,-6.9906,-6.9924,-6.9932,-6.9885,-6.9942,-6.9972,-6.9946,-7.0162,-7.0102,-7.0128,-7.0204,-7.0419,-7.0431,-7.0442,-7.0509,-7.0531,-7.055,0,0,0,0,0,0,-6.9579,-6.9649,-6.9636,-6.9778,-6.9837,-6.9899,-6.9971,-6.9955,-7.0027,-7.0018,-7.0024,-7.004,-7.0167,-7.0198,-7.0129,-7.0351,-7.0284,-7.0301,-7.0326,-7.0347,-7.0364,-7.0354,-7.0069,0,0,0,0,0,-6.9609,-6.9694,-6.975,-6.987,-6.99,-6.9931,-6.9979,-6.9981,-7.0041,-7.0066,-7.0104,-7.0163,-7.0244,-7.0297,-7.0374,-7.0521,-7.0535,-7.0586,-7.0603,-7.0617,-7.0631,-7.0711,-7.0735,-7.0483,-7.0483,-7.0483,0,0,-6.9669,-6.9718,-6.9771,-6.9883,-6.9928,-7.0016,-6.9952,-7.0047,-7.0112,-7.0079,-7.02,-7.0231,-7.0296,-7.0432,-7.0494,-7.0462,-7.0704,-7.0631,-7.0641,-7.0648,-7.0725,-7.0749,-7.077,-7.0491,-7.049,-7.0488,0,0,-6.9824,-6.987,-6.9975,-7.0023,-7.0094,-7.0113,-7.0139,-7.0204,-7.0224,-7.0345,-7.0323,-7.0399,-7.0539,-7.0587,-7.063,-7.0805,-7.0783,-7.083,-7.0917,-7.0995,-7.1015,-7.1033,-7.1096,-7.1118,-7.0844,-7.0844,-7.0844,0,-6.989,-7.0023,-7.0031,-7.0129,-7.0179,-7.0156,-7.0262,-7.0308,-7.0399,-7.0434,-7.0397,-7.0573,-7.0615,-7.0762,-7.0806,-7.0841,-7.0869,-7.0822,-7.1012,-7.103,-7.1046,-7.1106,-7.113,-7.0849,-7.0849,-7.0848,-7.0848,0,-7.01,-7.0193,-7.0269,-7.0361,-7.0419,-7.0521,-7.0544,-7.0602,-7.0599,-7.0622,-7.0746,-7.0796,-7.0884,-7.0919,-7.0916,-7.1067,-7.1045,-7.101,-7.0943,-7.1075,-7.1132,-7.1155,-7.0857,-7.0855,-7.0853,-7.0852,0,0,-7.0294,-7.039,-7.0418,-7.046,-7.0536,-7.0607,-7.0708,-7.0796,-7.0845,-7.0909,-7.0994,-7.1113,-7.1082,-7.1131,-7.1133,-7.1202,-7.1338,-7.1159,-7.116,-7.1191,-7.1508,-7.1534,-7.156,-7.1325,-7.1329,-7.1333,-7.1502,0,-7.0456,-7.0635,-7.0646,-7.0807,-7.0893,-7.0873,-7.096,-7.1017,-7.1042,-7.1117,-7.1143,-7.1228,-7.1181,-7.121,-7.1277,-7.1308,-7.1402,-7.1295,-7.1403,-7.1406,-7.1387,-7.159,-7.1617,-7.1775,-7.1525,-7.1528,-7.1531,0,-7.0668,-7.0742,-7.0912,-7.0978,-7.1015,-7.1093,-7.1175,-7.1248,-7.1311,-7.1324,-7.138,-7.1373,-7.1475,-7.1405,-7.1546,-7.1473,-7.1518,-7.1539,-7.1546,-7.1556,-7.1477,-7.1606,-7.1826,-7.185,-7.1566,-7.1563,-7.1561,0,-7.0793,-7.0934,-7.1054,-7.1091,-7.117,-7.1227,-7.1262,-7.1321,-7.1374,-7.1445,-7.1479,-7.156,-7.1604,-7.1667,-7.1682,-7.1629,-7.1824,-7.1754,-7.1837,-7.1837,-7.1878,-7.1876,-7.2109,-7.1907,-7.1907,-7.1906,-7.1906,0,-7.0973,-7.1078,-7.1112,-7.1186,-7.1303,-7.1315,-7.1431,-7.1462,-7.1516,-7.1595,-7.1582,-7.1656,-7.1672,-7.1749,-7.1761,-7.1877,-7.1897,-7.191,-7.1912,-7.1911,-7.191,-7.194,-7.193,-7.1912,-7.1911,-7.191,-7.1909,0,-7.1132,-7.1159,-7.1289,-7.1355,-7.1374,-7.1457,-7.1513,-7.1584,-7.1608,-7.1709,-7.1733,-7.177,-7.186,-7.1882,-7.1989,-7.1997,-7.2134,-7.2125,-7.2114,-7.2113,-7.2195,-7.2187,-7.2456,-7.2492,-7.2266,-7.2268,-7.227,0,-7.1245,-7.1326,-7.1401,-7.1454,-7.1493,-7.1579,-7.1633,-7.1647,-7.1704,-7.1783,-7.1844,-7.1934,-7.2007,-7.2152,-7.2188,-7.227,-7.2263,-7.2352,-7.2275,-7.2273,-7.2265,-7.226,-7.2269,-7.2366,-7.2369,-7.2371,-7.2372,0,-7.1443,-7.1453,-7.1532,-7.1617,-7.1682,-7.1748,-7.1812,-7.1856,-7.1879,-7.1943,-7.2037,-7.2094,-7.2205,-7.2294,-7.2377,-7.2412,-7.2397,-7.2396,-7.242,-7.242,-7.241,-7.2417,-7.2154,-7.239,-7.2388,-7.2387,-7.2386,-7.2385,-7.1583,-7.1655,-7.1719,-7.1808,-7.1858,-7.1918,-7.1989,-7.2022,-7.2101,-7.2194,-7.2197,-7.2299,-7.2361,-7.2471,-7.2512,-7.2591,-7.2564,-7.2597,-7.2606,-7.2614,-7.2622,-7.2398,-7.2606,-7.2605,-7.2605,-7.2605,-7.2604,0,-7.1781,-7.1822,-7.1904,-7.1994,-7.2064,-7.2046,-7.2115,-7.2175,-7.2265,-7.2325,-7.2397,-7.2505,-7.2592,-7.2635,-7.2721,-7.2776,-7.2771,-7.2798,-7.2794,-7.2803,-7.2641,-7.2613,-7.2801,-7.2801,-7.2801,-7.2801,-7.2801,-7.2801,-7.1892,-7.2013,-7.203,-7.2175,-7.2215,-7.2316,-7.2358,-7.2413,-7.2461,-7.2583,-7.2656,-7.2684,-7.2737,-7.2827,-7.2906,-7.2916,-7.2948,-7.2979,-7.2986,-7.2834,-7.2814,-7.2795,-7.2768,-7.2986,-7.2986,-7.314,-7.3142,-7.3143]}]]